Tracking 18793 objects as of 22-September-2017
HD Live streaming from Space Station
objects crossing your sky now

GSAT 3 (EDUSAT)

Track GSAT 3 (EDUSAT) now!
GSAT 3 (EDUSAT) is classified as:


NORAD ID: 28417
Int'l Code: 2004-036A
Perigee: 36,062.5 km
Apogee: 36,093.1 km
Inclination: 5.4 °
Period: 1,450.6 minutes
Semi major axis: 42448 km
RCS: 15.8866 m2 (large)
Launch date: September 20, 2004
Source: India (IND)
Launch site: SIRHARIKOTA (SRI)

Interactive education for remote areas of India; 6 C-band and 6 Ku-band transponders; first satellite dedicated to education.
aabbcc
Your satellite tracking list
Your tracking list is empty





NASA's NSSDC Master Catalog

Two Line Element Set (TLE):
1 28417U 04036A   17264.65481382  .00000026  00000-0  00000+0 0  9999
2 28417   5.3547  61.3478 0003615 156.1876 229.2235  0.99266980 47438
Source of the keplerian elements: AFSPC